This site uses a module created by best online poker sites.

BSB police report ending January 4, 2018

Print
"01/03/2018","00:06","218CR0000164","SUICIDE ATTEMPT/THREAT","SUICIDE ATTEMPT/THREAT","************","",""
"01/03/2018","00:25","218CR0000165","T/S","T/S","","",""
"01/03/2018","01:11","218CR0000166","ACCIDENT","NO LIABILITY INSURANCE IN EFF.","3221 HARRISON AVE","",""
"01/03/2018","02:58","218CR0000167","ACCIDENT","UNGOVERNABLE JUVENILE","SAMPSON ST AND WYNNE AVE","ARREST(s) MADE",""
"01/03/2018","03:00","218CR0000168","MEDICAL - EMERGENCY","MEDICAL - EMERGENCY","119771 RICK JONES WAY","",""
"01/03/2018","03:27","218CR0000169","ASSIST OTHER AGENCY","ASSIST OTHER AGENCY","I15 MM 157 SB","",""
"01/03/2018","04:28","218CR0000170","ACCIDENT","ACCIDENT","I90 WB MM 229","",""
"01/03/2018","05:15","218CR0000171","T/S","T/S","2200 BLK AMHERST","",""
"01/03/2018","05:34","218CR0000172","MEDICAL - EMERGENCY","MEDICAL - EMERGENCY","1324 HARRISON","",""
"01/03/2018","06:04","218CR0000173","SUSPICIOUS ACTIVITY","SUSPICIOUS ACTIVITY","100 BLK N IDAHO","",""
"01/03/2018","07:00","218CR0000174","ALARM - BURGLARY","ALARM - BURGLARY","************","",""
"01/03/2018","07:33","218CR0000175","MEDICAL - EMERGENCY","MEDICAL - EMERGENCY","114 MILKY WAY","",""
"01/03/2018","07:35","218CR0000176","CIVIL STANDBY","CIVIL STANDBY","1001 N EMMETT ST","",""
"01/03/2018","08:43","218CR0000177","HIT AND RUN","HIT AND RUN","1130 W PARK","",""
"01/03/2018","09:07","218CR0000178","T/S","T/S @ CONTINENTAL DR AND FLORAL BLVD","CONTINENTAL DR AND FLORAL BLVD","",""
"01/03/2018","09:09","218CR0000179","DETENTION BUSINESS","DETENTION BUSINESS","************","",""
"01/03/2018","09:14","218CR0000180","STOLEN VEHICLE","MOTOR VEHICLE THEFT","STODDEN PARK","",""
"01/03/2018","09:53","218CR0000181","WELFARE CHECK","WELFARE CHECK","932 S UTAH","",""
"01/03/2018","10:11","218CR0000182","ABANDONED VEHICLE","ABANDONED VEHICLE","QUARTZ AND WYOMING","",""
"01/03/2018","10:15","218CR0000183","ACCIDENT","ACCIDENT","1912 C ST","",""
"01/03/2018","10:24","218CR0000184","BURGLARY","BURGLARY","3535 S ARIZONA","",""
"01/03/2018","10:48","218CR0000185","DETENTION BUSINESS","DETENTION BUSINESS","************","",""
"01/03/2018","10:49","218CR0000186","ACCIDENT","ACCIDENT","2000 BLK MASSACHUSETTS AVE","",""
"01/03/2018","11:08","218CR0000187","THEFT","THEFT, SHOPLIFT","3901 HARRISON AVE","ARREST(s) MADE",""
"01/03/2018","11:15","218CR0000188","CIVIL STANDBY","CIVIL STANDBY","634 W BROADWAY","",""
"01/03/2018","11:32","218CR0000189","ACCIDENT","ACCIDENT","DAKOTA AND FRONT","",""
"01/03/2018","11:50","218CR0000192","CITIZEN AID","CITIZEN AID","118 COTTAGE LOOP","",""
"01/03/2018","11:56","218CR0000193","HIT AND RUN","HIT AND RUN, HIGHWAY FIXTURES","1301 W PARK ST","",""
"01/03/2018","12:21","218CR0000194","CITIZEN AID","CITIZEN AID","225 N ALASKA","",""
"01/03/2018","13:07","218CR0000195","UNKNOWN PROBLEM","UNKNOWN PROBLEM","MAIN AND SECOND","",""
"01/03/2018","13:08","218CR0000196","ALARM - MEDICAL","ALARM - MEDICAL","************","",""
"01/03/2018","13:10","218CR0000197","T/S","T/S @ RAMPART AND BLACKTAIL LN","RAMPART AND BLACKTAIL LN","",""
"01/03/2018","13:32","218CR0000198","T/S","T/S @ GILLIGANS TOBACCO PARKING LOT","GILLIGANS TOBACCO PARKING LOT","",""
"01/03/2018","14:06","218CR0000199","T/S","T/S @ OREGON AVE AND COBBAN ST","OREGON AVE AND COBBAN ST","",""
"01/03/2018","14:13","218CR0000200","ACCIDENT","ACCIDENT","DEWEY BLVD AND OREGON","",""
"01/03/2018","14:17","218CR0000201","INTIMIDATION","INTIMIDATION","701 DEWEY BLVD","",""
"01/03/2018","14:19","218CR0000202","ALL OTHER","ALL OTHER","2084 HARRISON AV","",""
"01/03/2018","14:35","218CR0000203","DISTURBANCE","PFMA - MINOR INJ/PHYSICAL CONT","PORPHYRY ST AND WASHINGTON ST","ARREST(s) MADE",""
"01/03/2018","14:45","218CR0000204","ALL OTHER","ALL OTHER","1506 SILVER BOW HOMES","",""
"01/03/2018","15:00","218CR0000205","ASSIST OTHER AGENCY","POSSESS DRUG PARAPHERNALIA","635 1/2 S IDAHO","ARREST(s) MADE",""
"01/03/2018","15:10","218CR0000206","WELFARE CHECK","WELFARE CHECK","3117 STATE","",""
"01/03/2018","15:12","218CR0000207","T/S","T/S @ GILLIGANS PARKING LOT","GILLIGANS PARKING LOT","",""
"01/03/2018","15:49","218CR0000208","CIVIL PAPER SERVICE","CIVIL PAPER SERVICE","125 W GRANITE","",""
"01/03/2018","15:52","218CR0000209","BUSINESS CHECK","BUSINESS CHECK","1201 S MONTANA","",""
"01/03/2018","16:25","218CR0000210","HARASSMENT","HARASSMENT","301 E MERCURY ST","",""
"01/03/2018","16:43","218CR0000211","THEFT","THEFT FROM MOTOR VEHICLE","225 N ALASKA","",""
"01/03/2018","16:51","218CR0000212","INTIMIDATION","INTIMIDATION","2324 S MONTANA","",""
"01/03/2018","16:55","218CR0000213","FRAUD","FRAUD","225 N ALASKA","",""
"01/03/2018","17:12","218CR0000214","T/S","T/S @ MONTANA ST AND SECOND ST","MONTANA ST AND SECOND ST","",""
"01/03/2018","17:14","218CR0000215","THEFT","THEFT","113 HAMILTON","",""
"01/03/2018","17:36","218CR0000216","THEFT","THEFT","225 N ALASKA","",""
"01/03/2018","17:43","218CR0000217","ALL OTHER","ALL OTHER","800 BLK TRAVONIA","",""
"01/03/2018","17:46","218CR0000218","MEDICAL - EMERGENCY","MEDICAL - EMERGENCY","3218 EVANS","",""
"01/03/2018","17:52","218CR0000219","UNKNOWN PROBLEM","UNKNOWN PROBLEM","GRAND AND THORNTON","",""
"01/03/2018","17:58","218CR0000220","CITIZEN AID","CITIZEN AID","2500 MASSACHUSETTS AVE","",""
"01/03/2018","18:05","218CR0000221","CIVIL PAPER SERVICE","CIVIL PAPER SERVICE","2504 PARROT","",""
"01/03/2018","19:01","218CR0000222","MEDICAL - EMERGENCY","MEDICAL - EMERGENCY","2701 GLADSTONE","",""
"01/03/2018","19:29","218CR0000223","T/S","T/S","JACKSON ST AND PORPHYRY ST","",""
"01/03/2018","20:04","218CR0000224","WELFARE CHECK","WELFARE CHECK","1125 S MAIN ST APT 205","",""
"01/03/2018","20:13","218CR0000225","T/S","T/S @ CAROLINA ST AND LOCUST ST","CAROLINA ST AND LOCUST ST","",""
"01/03/2018","21:14","218CR0000226","MEDICAL - EMERGENCY","MEDICAL - EMERGENCY","1839 OREGON","",""
"01/03/2018","21:23","218CR0000227","MEDICAL - EMERGENCY","MEDICAL - EMERGENCY","1515 OREGON AVE APT 502","",""
"01/03/2018","21:28","218CR0000228","ASSIST OTHER AGENCY","THEFT LOST OR MISLAID PROPERTY","I15 W BOUND SCALE ROCKER","ARREST(s) MADE",""
"01/03/2018","21:33","218CR0000229","T/S","OPERATING WITHOUT CURRENT REGI","WILSON AND LOCUST","ARREST(s) MADE",""
"01/03/2018","21:57","218CR0000230","UNWANTED PERSON","UNWANTED PERSON","************","",""
"01/03/2018","22:42","218CR0000231","DISTURBANCE","PFMA - MINOR INJ/PHYSICAL CONT","1720 LONGFELLOW","ARREST(s) MADE",""
"01/03/2018","23:07","218CR0000232","BUSINESS CHECK","BUSINESS CHECK","3878 PAXSON AVE","",""
"01/03/2018","23:26","218CR0000233","PROWLER","PROWLER","1125 S MAI N APT 105","",""
"01/03/2018","23:36","218CR0000234","W/PRISONER","W/PRISONER","1800 BLOCK OF HARRISON AVE","",""
"01/03/2018","23:40","218CR0000235","DISTURBANCE","DISTURBANCE","3409 KENNEDY","",""
"01/04/2018","00:16","218CR0000236","BUSINESS CHECK","BUSINESS CHECK","3700 HARRISON AVE","",""
"01/04/2018","00:26","218CR0000237","ANIMAL COMPLAINT","ANIMAL COMPLAINT","4300 SEVEN SPRINGS RD","",""
"01/04/2018","02:32","218CR0000238","BUSINESS CHECK","BUSINESS CHECK","ELIZABETH WARREN AND HARRISON","",""
"01/04/2018","02:43","218CR0000239","BUSINESS CHECK","BUSINESS CHECK","2001 DEWEY BLVD","",""
"01/04/2018","03:16","218CR0000240","SUSPICIOUS ACTIVITY","SUSPICIOUS ACTIVITY","226 W SILVER","",""
"01/04/2018","03:50","218CR0000241","DISTURBANCE-NOISE","DISTURBANCE-NOISE","957 W BROADWAY","",""
"01/04/2018","05:05","218CR0000242","DETENTION BUSINESS","DETENTION BUSINESS","************","",""
"01/04/2018","05:22","218CR0000243","DRUGS","DRUGS","************","",""
"01/04/2018","07:42","218CR0000244","CIVIL PAPER SERVICE","CIVIL PAPER SERVICE","3320 PAXSON","",""
"01/04/2018","07:46","218CR0000245","CIVIL PAPER SERVICE","CIVIL PAPER SERVICE","1928 S JACKSON","",""
 
Wednesday the 14th. Affiliate Marketing.
Copyright 2012

©